[[{"header":{"parameterUnit":"m.s-1","parameterCategory":1,"la1":30.2991,"la2":30.254,"lo1":-89.0895,"lo2":-89.0444,"dy":0.0017,"dx":0.0017,"nx":28,"ny":28,"refTime":"2026-02-24T09:00:00:Z","depth":0,"parameterNumber":2,"parameterNumberName":"U-component_of_WINDS"},"data":[0,0,0,0,0,0,0,0,0,0,0,0,0,0,0,0,0,0,0,0,0,0,0,0,0,0,0,0,0,0,0,0,0,0,0,0,0,0,0,0,0,0,0,0,0,0,0,0,0,0,0,0,0,0,0,0,0,0,3.7367,3.7369,0,3.7567,3.7569,3.7572,3.7583,3.758,3.7578,3.7576,3.778,3.7787,3.7795,0,0,0,0,0,0,0,0,0,0,0,0,0,3.6991,3.6998,3.7367,3.7369,3.7372,3.7567,3.757,3.7572,3.7583,3.758,3.7577,3.7575,3.7778,3.7786,3.7796,0,0,0,0,0,0,0,0,0,0,0,0,0,3.7169,3.7,3.7366,3.74,3.7406,3.7566,3.757,3.7573,3.7584,3.758,3.7577,3.7573,3.7775,3.7786,3.7797,3.7937,0,0,3.7832,3.7837,0,0,0,0,0,0,0,0,3.7159,3.7183,3.7393,3.7398,3.7404,3.7546,3.7512,3.7695,3.7584,3.7516,3.7576,3.7572,3.7705,3.7722,3.7767,3.7946,3.7955,3.7833,3.784,3.7844,3.7848,0,0,0,0,0,0,0,3.7146,3.7174,3.7446,3.7396,3.7403,3.7405,3.7427,3.7547,3.7627,3.7522,3.7523,3.7547,3.7707,3.7756,3.7772,3.7958,3.7832,3.7842,3.785,3.7854,3.8259,3.8263,0,0,0,0,0,0,3.7128,3.7164,3.7439,3.7452,3.7271,3.7415,3.7439,3.7504,3.7626,3.7641,3.7549,3.7546,3.7738,3.7759,3.7779,3.7949,3.7844,3.7855,3.7862,3.8255,3.826,3.8264,0,0,0,0,0,0,3.712,3.7152,3.7431,3.7308,3.7344,3.7425,3.7498,3.751,3.7559,3.7647,3.7661,3.7584,3.7736,3.7763,3.7897,3.7956,3.786,3.7871,3.8251,3.8257,3.8262,3.829,0,0,0,0,0,0,3.7109,3.7149,3.7204,3.7309,3.7351,3.7546,3.7502,3.7516,3.7578,3.7576,3.7684,3.7698,3.7736,3.788,3.7908,3.797,3.7879,3.8246,3.8253,3.826,3.8284,3.8296,3.8306,0,0,0,0,0,3.7095,3.7204,3.7206,3.724,3.742,3.755,3.7573,3.7615,3.7583,3.7638,3.7694,3.7695,3.7945,3.7893,3.7925,3.7992,3.8242,3.8251,3.826,3.8279,3.8294,3.8306,0,0,0,0,0,0,3.7103,3.7218,3.7222,3.7369,3.7449,3.7551,3.7622,3.7629,3.772,3.7715,3.7762,3.7786,3.7918,3.7969,3.7909,3.8132,3.809,3.8106,3.8094,3.8108,3.8119,3.8103,3.7889,0,0,0,0,0,3.7122,3.7218,3.7313,3.7433,3.7473,3.7541,3.7599,3.7623,3.7709,3.7743,3.7809,3.7892,3.7989,3.8052,3.8146,3.8292,3.8314,3.8353,3.8364,3.8373,3.8385,3.8464,3.8481,3.8293,3.8293,3.8293,0,0,3.7161,3.7236,3.7294,3.7436,3.7502,3.7599,3.7569,3.7674,3.7746,3.7759,3.7888,3.794,3.8035,3.8175,3.824,3.8221,3.8442,3.8384,3.839,3.8398,3.8475,3.8492,3.8508,3.8299,3.8298,3.8297,0,0,3.7282,3.735,3.7456,3.7522,3.7621,3.7665,3.769,3.7792,3.7826,3.7957,3.7968,3.8055,3.8222,3.8288,3.8344,3.8489,3.8491,3.8518,3.8576,3.8652,3.8666,3.868,3.8729,3.8747,3.8531,3.8531,3.8531,0,3.7319,3.7466,3.7509,3.7614,3.7675,3.7691,3.7798,3.786,3.7985,3.8026,3.8004,3.8212,3.8278,3.8432,3.8467,3.8512,3.8541,3.8505,3.8661,3.8675,3.8688,3.8735,3.8754,3.8533,3.8533,3.8533,3.8533,0,3.7505,3.7607,3.7681,3.78,3.787,3.7975,3.8033,3.8099,3.8117,3.8163,3.8295,3.8374,3.8484,3.8523,3.8542,3.868,3.8664,3.8651,3.861,3.8707,3.8753,3.8772,3.8537,3.8536,3.8535,3.8535,0,0,3.7636,3.7778,3.7804,3.7857,3.7968,3.8047,3.8152,3.8259,3.8314,3.8399,3.8487,3.8628,3.8616,3.8679,3.8706,3.8773,3.888,3.8751,3.8754,3.877,3.9033,3.904,3.9061,3.8883,3.8887,3.889,3.9024,0,3.7767,3.7955,3.7996,3.8157,3.8251,3.8267,3.8358,3.8435,3.8481,3.8566,3.8617,3.8714,3.8692,3.873,3.8797,3.8852,3.8933,3.8844,3.8963,3.8967,3.8937,3.9085,3.9094,3.9217,3.9042,3.9046,3.9048,0,3.7946,3.8035,3.8205,3.8301,3.8342,3.8424,3.8524,3.8606,3.8693,3.8722,3.8792,3.8812,3.892,3.8874,3.9023,3.8962,3.9013,3.9048,3.9054,3.9065,3.9012,3.9098,3.9258,3.9275,3.9077,3.9074,3.9072,0,3.8021,3.8184,3.8306,3.8352,3.8468,3.8524,3.8575,3.8659,3.872,3.8808,3.8848,3.8948,3.9002,3.9078,3.9123,3.9087,3.9268,3.9227,3.9293,3.9292,3.9329,3.9326,3.9497,3.9366,3.9366,3.9366,3.9365,0,3.8162,3.8265,3.8341,3.8416,3.8531,3.8578,3.869,3.8741,3.8815,3.8899,3.892,3.8998,3.9055,3.9141,3.9178,3.9294,3.9319,3.9344,3.9352,3.9341,3.9337,3.9374,3.9365,3.9371,3.937,3.9369,3.9368,0,3.8265,3.832,3.8454,3.8553,3.858,3.866,3.8745,3.8817,3.8863,3.8969,3.8997,3.9069,3.9171,3.9225,3.9353,3.9377,3.9507,3.9512,3.9478,3.948,3.9543,3.9535,3.9741,3.977,3.9622,3.9624,3.9625,0,3.835,3.8429,3.8536,3.8594,3.8646,3.874,3.8802,3.885,3.8914,3.9019,3.9078,3.9182,3.9267,3.9429,3.9492,3.959,3.9595,3.9661,3.961,3.9595,3.9593,3.9587,3.9594,3.9669,3.967,3.9671,3.9672,0,3.8494,3.8517,3.8607,3.8706,3.8779,3.886,3.8939,3.8985,3.9046,3.9116,3.9221,3.9287,3.9417,3.9519,3.9621,3.9672,3.9682,3.9688,3.9708,3.9696,3.9672,3.9684,3.9499,3.9683,3.9682,3.9681,3.968,3.968,3.8589,3.866,3.8745,3.8844,3.8908,3.8981,3.9054,3.9109,3.9197,3.9307,3.933,3.944,3.9524,3.9662,3.9717,3.9803,3.9789,3.9819,3.9826,3.9832,3.9833,3.966,3.9822,3.9822,3.9821,3.9821,3.9821,0,3.8732,3.8788,3.8878,3.8988,3.9065,3.9068,3.9156,3.9219,3.9316,3.9394,3.9477,3.9596,3.9694,3.9765,3.9865,3.992,3.9927,3.9945,3.994,3.9951,3.9841,3.9812,3.9937,3.9937,3.9937,3.9937,3.9937,3.9937,3.8816,3.8934,3.8967,3.9118,3.9173,3.9281,3.933,3.9397,3.9459,3.9591,3.9673,3.9719,3.9793,3.9899,3.9989,4.0007,4.0041,4.0058,4.0076,3.9972,3.9959,3.9947,3.9921,4.0066,4.0066,4.0179,4.018,4.0181]},{"header":{"parameterUnit":"m.s-1","parameterCategory":1,"la1":30.2991,"la2":30.254,"lo1":-89.0895,"lo2":-89.0444,"dy":0.0017,"dx":0.0017,"nx":28,"ny":28,"refTime":"2026-02-24T09:00:00:Z","depth":0,"parameterNumber":3,"parameterNumberName":"V-component_of_WINDS"},"data":[0,0,0,0,0,0,0,0,0,0,0,0,0,0,0,0,0,0,0,0,0,0,0,0,0,0,0,0,0,0,0,0,0,0,0,0,0,0,0,0,0,0,0,0,0,0,0,0,0,0,0,0,0,0,0,0,0,0,5.0599,5.0601,0,5.0791,5.0793,5.0795,5.0798,5.0795,5.0793,5.0791,5.0988,5.0995,5.1002,0,0,0,0,0,0,0,0,0,0,0,0,0,5.0232,5.0239,5.0598,5.0601,5.0603,5.0791,5.0793,5.0796,5.0798,5.0795,5.0792,5.0789,5.0985,5.0994,5.1003,0,0,0,0,0,0,0,0,0,0,0,0,0,5.0405,5.0241,5.0598,5.0627,5.0631,5.079,5.0793,5.0797,5.0799,5.0795,5.0791,5.0788,5.0982,5.0993,5.1004,5.1147,0,0,5.1039,5.1044,0,0,0,0,0,0,0,0,5.0395,5.0418,5.062,5.0625,5.063,5.0767,5.0736,5.0914,5.08,5.0735,5.079,5.0786,5.0917,5.0933,5.0978,5.1156,5.1165,5.104,5.1047,5.1051,5.1055,0,0,0,0,0,0,0,5.0383,5.041,5.0675,5.0623,5.0629,5.063,5.0651,5.077,5.0844,5.0741,5.0741,5.0764,5.0919,5.0967,5.0982,5.1168,5.1039,5.1049,5.1056,5.1061,5.1472,5.1476,0,0,0,0,0,0,5.0365,5.04,5.0668,5.068,5.0501,5.064,5.0663,5.0727,5.0843,5.0857,5.0767,5.0763,5.0949,5.0969,5.0989,5.1164,5.1051,5.1062,5.1068,5.1468,5.1473,5.1478,0,0,0,0,0,0,5.0357,5.0389,5.0661,5.054,5.0575,5.065,5.0722,5.0732,5.078,5.0863,5.0876,5.0802,5.0947,5.0973,5.1108,5.1171,5.1067,5.1077,5.1463,5.147,5.1475,5.1514,0,0,0,0,0,0,5.0347,5.0386,5.0441,5.0542,5.0581,5.0776,5.0726,5.0739,5.0799,5.0797,5.0899,5.0913,5.0946,5.1091,5.1119,5.1184,5.1086,5.1458,5.1466,5.1473,5.1507,5.1521,5.1532,0,0,0,0,0,5.0334,5.0445,5.0444,5.0477,5.0652,5.078,5.0803,5.0839,5.0804,5.086,5.0914,5.0909,5.1159,5.1104,5.1136,5.1206,5.1454,5.1464,5.1473,5.1502,5.1518,5.1532,0,0,0,0,0,0,5.0351,5.0458,5.0459,5.0606,5.0684,5.078,5.0852,5.0855,5.0944,5.0938,5.0979,5.1003,5.1136,5.1184,5.1122,5.135,5.1302,5.1318,5.1313,5.133,5.1342,5.1327,5.1095,0,0,0,0,0,5.0371,5.0466,5.0555,5.0676,5.0715,5.0777,5.0834,5.0855,5.0937,5.097,5.1033,5.1113,5.1209,5.1272,5.1365,5.1514,5.1536,5.1577,5.159,5.1599,5.1613,5.1695,5.1714,5.1508,5.1508,5.1508,0,0,5.0415,5.0486,5.0543,5.0681,5.0744,5.0841,5.0804,5.0909,5.0981,5.0986,5.1117,5.1166,5.1257,5.1399,5.1465,5.1444,5.1675,5.1611,5.1618,5.1627,5.1706,5.1726,5.1743,5.1515,5.1514,5.1513,0,0,5.0545,5.0608,5.0715,5.0779,5.0874,5.0914,5.094,5.1036,5.1069,5.12,5.1206,5.1292,5.1457,5.1522,5.1577,5.173,5.173,5.1759,5.1824,5.1903,5.192,5.1934,5.1989,5.2008,5.1773,5.1773,5.1773,0,5.0588,5.0734,5.077,5.0875,5.0935,5.0944,5.1053,5.1112,5.1233,5.1275,5.1249,5.1456,5.1518,5.1675,5.1713,5.1757,5.1787,5.1748,5.1914,5.1929,5.1943,5.1996,5.2016,5.1776,5.1775,5.1775,5.1775,0,5.0782,5.0884,5.0959,5.1075,5.1144,5.125,5.1302,5.1367,5.1382,5.1425,5.1558,5.1633,5.1742,5.178,5.1796,5.194,5.1923,5.1906,5.1859,5.1965,5.2015,5.2036,5.178,5.1779,5.1778,5.1777,0,0,5.0929,5.1063,5.109,5.1142,5.1247,5.1327,5.1433,5.1539,5.1594,5.1677,5.1767,5.1906,5.189,5.1952,5.1975,5.2044,5.216,5.2018,5.2021,5.2042,5.2323,5.2336,5.2358,5.216,5.2164,5.2167,5.2315,0,5.107,5.1259,5.1294,5.1459,5.1553,5.1561,5.1654,5.1728,5.1771,5.1856,5.1903,5.2001,5.1973,5.201,5.2079,5.2132,5.2217,5.2121,5.2244,5.2248,5.2222,5.2385,5.2399,5.2535,5.2335,5.2338,5.2341,0,5.126,5.1347,5.1521,5.1613,5.1654,5.1736,5.1836,5.1918,5.2002,5.2028,5.2097,5.2112,5.2222,5.217,5.2322,5.2256,5.2308,5.2342,5.2348,5.2361,5.2301,5.2402,5.2579,5.2599,5.2372,5.2369,5.2367,0,5.1349,5.151,5.1635,5.168,5.179,5.1848,5.1896,5.1977,5.2038,5.2125,5.2165,5.2263,5.2317,5.2393,5.2434,5.2392,5.2583,5.2535,5.2608,5.2607,5.2648,5.2645,5.2836,5.2682,5.2681,5.2681,5.268,0,5.1503,5.161,5.1676,5.1753,5.1872,5.1911,5.2028,5.2075,5.2147,5.2233,5.2246,5.2327,5.2376,5.2463,5.2496,5.2617,5.2641,5.2665,5.2673,5.2664,5.2661,5.2699,5.2691,5.2686,5.2685,5.2684,5.2683,0,5.1624,5.1673,5.1809,5.1902,5.1928,5.2012,5.2091,5.2166,5.2208,5.2316,5.2344,5.241,5.2514,5.2562,5.269,5.2712,5.2849,5.285,5.2821,5.2824,5.2894,5.2887,5.3117,5.3149,5.2973,5.2974,5.2976,0,5.1719,5.1801,5.1902,5.196,5.201,5.2105,5.2167,5.2208,5.2272,5.2374,5.2436,5.254,5.2626,5.279,5.285,5.2948,5.2951,5.3025,5.2966,5.2955,5.2952,5.2947,5.2955,5.3035,5.3037,5.3039,5.304,0,5.1883,5.1903,5.1992,5.2089,5.2163,5.2242,5.232,5.2367,5.242,5.2491,5.2597,5.2663,5.2794,5.2897,5.2999,5.3049,5.3054,5.3058,5.308,5.3072,5.3052,5.3064,5.285,5.3052,5.3051,5.305,5.3049,5.3049,5.1994,5.2066,5.2149,5.2247,5.231,5.2382,5.2456,5.2507,5.2596,5.2706,5.2724,5.2837,5.2918,5.3056,5.3109,5.3197,5.318,5.3212,5.3221,5.3228,5.3232,5.3037,5.3216,5.3216,5.3216,5.3215,5.3215,0,5.2158,5.2211,5.2301,5.2409,5.2486,5.2483,5.2569,5.2634,5.2733,5.2808,5.2892,5.3013,5.3113,5.318,5.3281,5.3339,5.3343,5.3364,5.336,5.3372,5.3242,5.3212,5.3358,5.3358,5.3358,5.3358,5.3358,5.3358,5.2252,5.2375,5.2405,5.2559,5.2611,5.2721,5.277,5.2837,5.2897,5.3032,5.3115,5.3158,5.323,5.3336,5.3427,5.3444,5.3481,5.3502,5.3518,5.3396,5.3381,5.3366,5.3339,5.3509,5.351,5.3641,5.3642,5.3643]}]]